Location: Dodge City Community College Allied Health Building
(37.7772°N, 100.0364°W)
Time: 13:21:05
(UTC+00:00)

Cosmos 1538 Rocket - Pass Details

Date: 08 December 2021
Orbit: 753 x 791 km, 74.0° (Epoch: 20 January)

Event Time Altitude Azimuth Distance (km) Brightness Sun altitude
Exits shadow 12:32:53 - 343° (NNW) 2,978 6.7 -13.6°
Reaches altitude 10° 12:34:37 10° 344° (NNW) 2,301 6.1 -13.3°
Maximum altitude 12:39:51 80° 72° (ENE) 773 4.1 -12.3°
Drops below altitude 10° 12:44:59 10° 159° (SSE) 2,270 7.1 -11.3°
Sets 12:47:20 0° 161° (SSE) 3,189 7.8 -10.9°
